IR1DD-3 Weather Reports


time (UTC)temp
F
wind
direction
speed
knots
gust
knots
rain 1hr
in
rain 24hr
in
rain mn
in
humidity
%
barometer
mb
20260507142414 35 0.0 0.0 0.00 0.00 0.00 1004.7
20260507141401 35 0.0 0.0 0.00 0.00 0.00 1004.7
20260507140351 35 0.0 0.0 0.00 0.00 0.00 1004.8
20260507135337 35 0.0 0.0 0.00 0.00 0.00 1004.9
20260507134325 35 0.0 0.0 0.00 0.00 0.00 1005.2
20260507133314 35 0.0 0.0 0.00 0.00 0.00 1005.2
20260507132250 36 0.0 0.0 0.00 0.00 0.00 1005.3
20260507131237 37 0.0 0.0 0.00 0.00 0.00 1005.4
20260507130223 38 0.0 0.0 0.00 0.00 0.00 1005.1
20260507125218 38 0.0 0.0 0.00 0.00 0.00 1005.2
20260507124212 37 0.0 0.0 0.00 0.00 0.00 1005.2
20260507123202 37 0.0 0.0 0.00 0.00 0.00 1005.1
20260507122158 39 0.0 0.0 0.00 0.00 0.00 1005.2
20260507121153 39 0.0 0.0 0.00 0.00 0.00 1004.9
20260507120140 40 0.0 0.0 0.00 0.00 0.00 1004.9
20260507115133 41 0.0 0.0 0.00 0.00 0.00 1005.0
20260507114124 42 0.0 0.0 0.00 0.00 0.00 1004.9
20260507113118 37 0.0 0.0 0.00 0.00 0.00 1004.9
20260507112110 37 0.0 0.0 0.00 0.00 0.00 1005.0
20260507111105 37 0.0 0.0 0.00 0.00 0.00 1005.0
20260507110058 37 0.0 0.0 0.00 0.00 0.00 1004.9
20260507105054 37 0.0 0.0 0.00 0.00 0.00 1004.9
20260507104010 37 0.0 0.0 0.00 0.00 0.00 1004.8
20260507102952 36 0.0 0.0 0.00 0.00 0.00 1004.9
20260507101942 36 0.0 0.0 0.00 0.00 0.00 1004.8
20260507100933 36 0.0 0.0 0.00 0.00 0.00 1004.7
20260507095924 36 0.0 0.0 0.00 0.00 0.00 1004.5
20260507094913 36 0.0 0.0 0.00 0.00 0.00 1004.4
20260507093909 37 0.0 0.0 0.00 0.00 0.00 1004.5
20260507092844 34 0.0 0.0 0.00 0.00 0.00 1004.2
20260507091836 35 0.0 0.0 0.00 0.00 0.00 1004.1
20260507090822 36 0.0 0.0 0.00 0.00 0.00 1004.1
20260507085745 36 0.0 0.0 0.00 0.00 0.00 1004.0
20260507084732 36 0.0 0.0 0.00 0.00 0.00 1003.9
20260507083726 35 0.0 0.0 0.00 0.00 0.00 1003.8
20260507082710 37 0.0 0.0 0.00 0.00 0.00 1003.7
20260507081701 39 0.0 0.0 0.00 0.00 0.00 1003.7
20260507080054 39 0.0 0.0 0.00 0.00 0.00 1003.5
20260507075044 41 0.0 0.0 0.00 0.00 0.00 1003.6
20260507074035 40 0.0 0.0 0.00 0.00 0.00 1003.4
20260507073027 40 0.0 0.0 0.00 0.00 0.00 1003.2
20260507072020 40 0.0 0.0 0.00 0.00 0.00 1003.2
20260507071012 40 0.0 0.0 0.00 0.00 0.00 1003.2
20260507070011 40 0.0 0.0 0.00 0.00 0.00 1003.0
20260507065047 40 0.0 0.0 0.00 0.00 0.00 1002.8
20260507064951 40 0.0 0.0 0.00 0.00 0.00 1002.8
20260507064019 39 0.0 0.0 0.00 0.00 0.00 1002.8
20260507063943 39 0.0 0.0 0.00 0.00 0.00 1002.8
20260507062933 37 0.0 0.0 0.00 0.00 0.00 1002.7
20260507062116 34 0.0 0.0 0.00 0.00 0.00 1002.6
20260507061924 34 0.0 0.0 0.00 0.00 0.00 1002.6
20260507061014 33 0.0 0.0 0.00 0.00 0.00 1002.5
20260507060918 33 0.0 0.0 0.00 0.00 0.00 1002.5
20260507055915 32 0.0 0.0 0.00 0.00 0.00 1002.3
20260507054903 32 0.0 0.0 0.00 0.00 0.00 1002.3
20260507053848 32 0.0 0.0 0.00 0.00 0.00 1002.1
20260507052834 31 0.0 0.0 0.00 0.00 0.00 1001.9
20260507051812 31 0.0 0.0 0.00 0.00 0.00 1001.8
20260507050756 31 0.0 0.0 0.00 0.00 0.00 1001.6
20260507045743 30 0.0 0.0 0.00 0.00 0.00 1001.5
20260507044730 30 0.0 0.0 0.00 0.00 0.00 1001.4
20260507043717 30 0.0 0.0 0.00 0.00 0.00 1001.5
20260507042732 29 0.0 0.0 0.00 0.00 0.00 1001.5
20260507042700 29 0.0 0.0 0.00 0.00 0.00 1001.5
20260507041745 29 0.0 0.0 0.00 0.00 0.00 1001.4
20260507041641 29 0.0 0.0 0.00 0.00 0.00 1001.4
20260507040628 29 0.0 0.0 0.00 0.00 0.00 1001.3
20260507035603 29 0.0 0.0 0.00 0.00 0.00 1001.3
20260507034551 30 0.0 0.0 0.00 0.00 0.00 1001.4
20260507033542 30 0.0 0.0 0.00 0.00 0.00 1001.3
20260507032531 30 0.0 0.0 0.00 0.00 0.00 1001.2
20260507031520 30 0.0 0.0 0.00 0.00 0.00 1001.3
20260507030501 30 0.0 0.0 0.00 0.00 0.00 1001.4
20260507025450 30 0.0 0.0 0.00 0.00 0.00 1001.5
20260507024439 30 0.0 0.0 0.00 0.00 0.00 1001.6
20260507023430 30 0.0 0.0 0.00 0.00 0.00 1001.4
20260507022420 30 0.0 0.0 0.00 0.00 0.00 1001.4
20260507021410 30 0.0 0.0 0.00 0.00 0.00 1001.5
20260507020358 29 0.0 0.0 0.00 0.00 0.00 1001.4
20260507015346 29 0.0 0.0 0.00 0.00 0.00 1001.4
20260507014332 29 0.0 0.0 0.00 0.00 0.00 1001.4
20260507013317 29 0.0 0.0 0.00 0.00 0.00 1001.3
20260507012307 30 0.0 0.0 0.00 0.00 0.00 1001.5
20260507011257 30 0.0 0.0 0.00 0.00 0.00 1001.5
20260507010235 29 0.0 0.0 0.00 0.00 0.00 1001.4
20260507005221 30 0.0 0.0 0.00 0.00 0.00 1001.6
20260507004209 29 0.0 0.0 0.00 0.00 0.00 1001.5
20260507003149 30 0.0 0.0 0.00 0.00 0.00 1001.5
20260507002135 31 0.0 0.0 0.00 0.00 0.00 1001.5
20260507001124 31 0.0 0.0 0.00 0.00 0.00 1001.5
20260507000117 32 0.0 0.0 0.00 0.00 0.00 1001.5
20260506235108 32 0.0 0.0 0.00 0.00 0.00 1001.5
20260506234058 31 0.0 0.0 0.00 0.00 0.00 1001.4
20260506233044 31 0.0 0.0 0.00 0.00 0.00 1001.6
20260506232031 31 0.0 0.0 0.00 0.00 0.00 1001.7
20260506231023 31 0.0 0.0 0.00 0.00 0.00 1001.8
20260506230012 31 0.0 0.0 0.00 0.00 0.00 1001.6
20260506224956 31 0.0 0.0 0.00 0.00 0.00 1001.5
20260506223940 31 0.0 0.0 0.00 0.00 0.00 1001.7
20260506222930 31 0.0 0.0 0.00 0.00 0.00 1001.7
20260506221920 31 0.0 0.0 0.00 0.00 0.00 1001.7
20260506220903 31 0.0 0.0 0.00 0.00 0.00 1001.8
20260506215854 31 0.0 0.0 0.00 0.00 0.00 1001.6
20260506214810 31 0.0 0.0 0.00 0.00 0.00 1001.6
20260506213754 31 0.0 0.0 0.00 0.00 0.00 1001.8
20260506212742 31 0.0 0.0 0.00 0.00 0.00 1001.8
20260506211729 32 0.0 0.0 0.00 0.00 0.00 1001.9
20260506210709 32 0.0 0.0 0.00 0.00 0.00 1001.6
20260506205657 32 0.0 0.0 0.00 0.00 0.00 1001.6
20260506204647 32 0.0 0.0 0.00 0.00 0.00 1001.5
20260506203640 32 0.0 0.0 0.00 0.00 0.00 1001.4
20260506202630 32 0.0 0.0 0.00 0.00 0.00 1001.2
20260506201620 32 0.0 0.0 0.00 0.00 0.00 1001.0
20260506200607 32 0.0 0.0 0.00 0.00 0.00 1000.9
20260506195559 32 0.0 0.0 0.00 0.00 0.00 1000.8
20260506194543 32 0.0 0.0 0.00 0.00 0.00 1000.5
20260506193531 32 0.0 0.0 0.00 0.00 0.00 1000.3
20260506192518 31 0.0 0.0 0.00 0.00 0.00 999.8
20260506191508 32 0.0 0.0 0.00 0.00 0.00 999.7
20260506190441 32 0.0 0.0 0.00 0.00 0.00 999.8
20260506185430 32 0.0 0.0 0.00 0.00 0.00 999.8
20260506184459 33 0.0 0.0 0.00 0.00 0.00 999.8
20260506184422 33 0.0 0.0 0.00 0.00 0.00 999.8
20260506183405 32 0.0 0.0 0.00 0.00 0.00 999.7
20260506182400 32 0.0 0.0 0.00 0.00 0.00 999.0
20260506181354 32 0.0 0.0 0.00 0.00 0.00 998.8
20260506180416 33 0.0 0.0 0.00 0.00 0.00 999.0
20260506180345 33 0.0 0.0 0.00 0.00 0.00 999.0
20260506175330 33 0.0 0.0 0.00 0.00 0.00 999.2
20260506174323 33 0.0 0.0 0.00 0.00 0.00 999.2
20260506173403 34 0.0 0.0 0.00 0.00 0.00 999.0
20260506173312 34 0.0 0.0 0.00 0.00 0.00 999.0
20260506172306 33 0.0 0.0 0.00 0.00 0.00 999.1
20260506171245 34 0.0 0.0 0.00 0.00 0.00 999.1
20260506170234 34 0.0 0.0 0.00 0.00 0.00 999.3
20260506165218 34 0.0 0.0 0.00 0.00 0.00 999.4
20260506164209 34 0.0 0.0 0.00 0.00 0.00 999.6
20260506163159 34 0.0 0.0 0.00 0.00 0.00 999.5
20260506162151 35 0.0 0.0 0.00 0.00 0.00 999.4
20260506161146 35 0.0 0.0 0.00 0.00 0.00 999.4
20260506160133 35 0.0 0.0 0.00 0.00 0.00 999.5
20260506155112 34 0.0 0.0 0.00 0.00 0.00 999.6
20260506154100 35 0.0 0.0 0.00 0.00 0.00 999.5
20260506153055 35 0.0 0.0 0.00 0.00 0.00 999.6
20260506152042 35 0.0 0.0 0.00 0.00 0.00 999.5
20260506151030 35 0.0 0.0 0.00 0.00 0.00 999.5
20260506150024 35 0.0 0.0 0.00 0.00 0.00 999.8
20260506145015 36 0.0 0.0 0.00 0.00 0.00 999.6
20260506144005 36 0.0 0.0 0.00 0.00 0.00 999.5